PAKSAT 1R

导读

PAKSAT-1R是巴基斯坦(PK)一颗地球同步轨道通信卫星,于北京时间2011年8月11日由中国长征三号乙运载火箭在西昌卫星发射中心发射升空,是中巴航天合作标志性项目。该卫星设计寿命15年,搭载30个转发器,覆盖南亚、中亚等区域,提供电视广播、宽带互联网、远程医疗教育等服务,满足巴基斯坦通信需求,改善偏远地区连接,被称为中巴“友谊之星”。

基本信息
目录编号:
37779
目录名称:
PAKSAT 1R
国际标识:
2011-042A
轨道中心:
EARTH
卫星名称:
PAKSAT 1R
卫星全名:
--
卫星状态:
在轨 (已飞行5424 天)
发射日期:
2011-08-11 UTC
国别 :
巴基斯坦 (PK)
星等 :
--
轨道信息
数据来源 国际轨道数据 AOE轨道数据
星历时间 2026-06-17T07:27:44+0800
20小时前
查看轨道信息
2026-06-17T10:00:00+0800
18小时前
查看轨道信息
半长轴 42166.354km 42166.298km
偏心率 0.0003259 0.000327
轨道倾角 0.689° 0.690°
近地点辐角 336.668° 334.979°
升交点赤经 84.595° 84.639°
平近点角 233.940° 273.755°
近地点 35774.474km 35774.372km
远地点 35801.96km 35801.95km
周期 1436.180分钟 1436.177分钟
每日圈数 1.00266 1.002662
详细信息
使用方式:
暂无
2D轨道图
3D轨道图
轨道高度分析图
轨道倾角分析图
轨道综合分析图
查看轨道综合分析图